Location: *
(43.0409°N, 0.1694°E)
Time: 21:26:19
(UTC+00:00)

Sich 1 - Pass Details

Date: 03 October 2023
Orbit: 587 x 616 km, 82.5° (Epoch: 04 December)

Event Time Altitude Azimuth Distance (km) Brightness Sun altitude
Rises 05:01:00 0° 335° (NNW) 2,867 6.3 -11.3°
Reaches altitude 10° 05:03:48 10° 316° (NW) 1,964 5.3 -10.8°
Maximum altitude 05:06:42 18° 274° (W) 1,520 4.4 -10.3°
Drops below altitude 10° 05:09:37 10° 232° (SW) 1,965 5.1 -9.7°
Sets 05:12:25 0° 213° (SSW) 2,868 6.1 -9.2°
